Probability
5 3 1 1 1 0 0 0 0 0 0 1 0 0 0 0 0 0 0 0 0 0 0 4 11 14 10 7 7 8 8 7 5 3 2 4 5 4 2 1 0 0 0 0 0 0 0 0 0
4 2 1 1 0 0 0 0 0 0 1 1 1 0 0 0 0 0 0 0 0 0 0 5 11 13 9 7 8 8 8 7 5 3 2 3 4 3 2 1 0 0 0 0 0 0 0 0 0
4 2 2 2 1 1 1 1 0 1 2 2 1 0 0 0 0 0 0 0 0 0 1 6 12 11 8 8 8 8 8 7 5 4 2 2 2 1 1 0 0 0 0 0 0 0 0 0 0
3 2 2 2 1 2 2 1 1 2 3 3 2 1 1 1 1 0 0 0 0 0 1 5 10 10 8 8 9 8 8 6 5 4 3 2 1 0 0 0 0 1 1 1 0 0 0 0 0
1 1 1 1 1 2 2 1 1 2 3 3 3 3 3 4 3 1 0 0 0 0 0 3 8 10 8 7 8 9 7 5 4 4 3 1 1 0 0 0 0 1 2 1 0 0 0 0 0
1 0 0 0 0 1 1 0 1 2 3 3 3 3 4 6 5 2 0 0 0 0 0 2 7 9 8 7 8 8 6 5 5 5 3 1 0 0 0 0 0 1 1 1 0 0 1 1 0
1 0 0 0 0 0 0 1 2 2 3 3 3 4 5 6 5 2 0 0 0 0 0 1 4 7 7 7 8 8 6 6 7 7 6 3 1 1 1 0 0 1 1 0 0 0 1 1 1
1 0 0 0 0 0 1 2 2 1 2 3 3 4 5 5 4 1 0 0 0 0 0 0 1 2 4 5 6 6 6 7 7 8 7 5 3 2 1 0 0 1 1 1 1 1 1 1 0
1 0 0 0 0 0 1 2 2 1 1 3 4 5 5 4 3 1 0 0 0 0 0 0 0 1 2 2 2 3 5 5 5 5 5 4 2 1 1 0 0 0 1 2 2 2 2 1 0
1 0 0 0 0 0 1 2 2 1 1 3 5 6 5 4 2 1 0 0 0 0 0 0 0 0 1 1 0 1 2 2 2 2 3 3 1 1 1 0 0 0 0 1 2 2 2 1 0
0 1 1 1 1 0 0 1 1 1 1 4 6 7 6 4 2 1 0 0 0 0 0 0 0 0 0 0 0 0 0 0 1 2 3 2 2 1 1 0 0 0 0 0 1 1 1 1 1
1 1 2 2 1 0 0 0 1 1 3 4 5 6 6 4 2 1 0 0 0 0 0 0 0 0 0 0 0 0 0 0 1 2 3 3 2 1 1 1 1 1 1 0 0 0 0 0 0
0 1 1 1 0 0 0 0 1 2 3 3 4 4 4 4 2 1 0 0 0 0 0 0 0 0 0 0 0 0 0 0 0 2 3 3 3 1 1 2 2 2 2 1 1 0 0 0 0
0 0 0 0 0 0 0 0 1 1 2 2 3 3 3 3 2 1 0 0 0 0 0 0 0 0 0 0 1 1 0 0 0 2 3 3 3 3 3 3 3 3 3 3 2 1 1 0 0
0 0 0 0 0 0 0 0 0 1 2 2 3 3 3 3 2 1 0 0 0 0 0 0 0 1 1 1 2 2 1 1 1 1 2 3 3 3 3 3 3 3 3 2 2 2 1 0 0
0 0 0 0 0 0 0 0 0 1 2 2 2 3 3 1 1 0 0 0 0 0 0 1 1 2 2 3 3 3 2 2 1 1 1 1 2 3 3 3 3 2 1 1 1 1 1 0 0
0 0 0 0 0 0 0 0 0 0 1 1 1 2 2 1 0 0 0 0 0 0 1 2 3 3 4 4 4 3 2 1 1 0 0 0 1 3 3 3 3 1 0 0 1 1 1 0 0
0 0 0 0 0 0 0 0 0 0 0 0 0 1 1 0 0 0 1 1 0 1 1 3 3 4 4 4 4 3 2 1 0 0 0 0 1 2 3 3 3 1 1 1 1 2 1 1 1
0 0 0 0 0 0 0 0 0 0 0 0 0 0 0 1 1 1 2 2 1 2 3 3 3 3 4 3 3 3 3 1 1 1 1 0 0 1 3 3 3 3 2 2 2 2 3 2 2
0 0 0 0 0 0 0 0 0 0 0 0 0 0 1 2 2 2 2 2 2 3 3 3 3 3 3 4 4 4 3 2 1 1 0 0 0 1 2 3 3 3 3 3 3 3 3 3 3
0 0 0 0 0 0 0 0 1 1 1 1 0 0 1 3 4 3 2 2 2 2 2 2 2 2 3 4 5 4 3 1 1 0 0 0 1 1 3 3 3 3 3 3 3 3 4 4 4
0 0 0 0 0 0 0 0 1 2 3 2 1 1 2 3 4 2 1 1 1 1 1 1 1 1 2 3 4 4 3 1 0 0 1 1 2 3 3 3 3 2 2 2 2 3 4 4 4
0 0 0 0 0 0 0 0 1 2 3 3 3 3 3 4 4 2 1 1 1 1 1 1 0 0 1 2 3 3 3 1 0 1 2 2 2 2 2 2 1 1 1 1 1 1 3 4 4
0 0 0 0 0 0 0 0 0 1 2 2 3 4 3 3 3 2 2 2 1 2 3 3 2 1 2 3 4 4 4 3 1 1 2 2 1 1 1 1 1 1 0 0 0 0 1 3 3
0 0 0 0 0 0 0 0 0 0 1 2 2 3 2 1 2 2 3 3 2 3 5 6 6 5 4 5 5 5 5 4 3 2 1 1 0 0 1 1 3 3 2 1 0 0 1 2 3
0 0 0 0 0 0 0 0 0 0 1 1 2 3 2 1 1 1 3 4 4 5 6 7 9 8 6 5 5 4 3 3 3 2 1 0 1 1 3 4 5 6 5 4 2 2 3 4 5
0 0 0 0 0 0 0 0 0 0 0 1 3 5 4 1 0 1 3 5 5 6 6 6 7 7 5 4 4 3 2 2 2 1 0 0 1 3 5 5 5 6 7 7 6 5 7 8 8
0 0 0 0 0 0 0 0 0 0 1 2 3 4 4 2 1 1 3 4 4 5 5 4 4 4 4 3 3 3 3 2 2 2 2 2 2 4 5 4 3 5 7 8 8 8 9 10 10
0 0 0 0 0 0 0 0 0 1 2 3 3 3 3 3 2 2 2 3 3 4 4 5 4 4 5 4 4 4 4 4 4 5 5 4 3 4 3 3 2 2 5 7 9 9 10 10 10
0 0 0 0 0 0 0 0 0 1 2 3 3 3 3 3 3 2 1 2 2 3 5 6 6 6 6 6 5 5 5 5 6 7 7 5 3 2 2 2 1 1 4 7 9 9 10 10 10
Wind_Speed
7 5 2 1 2 3 2 3 1 2 2 2 3 4 4 2 1 2 2 1 1 1 2 4 4 4 6 7 8 8 8 10 10 10 10 10 9 9 8 8 8 8 7 7 7 7 7 7 7
5 4 1 1 3 3 4 3 2 1 2 2 3 3 3 2 1 1 1 1 1 1 1 2 4 5 6 7 7 7 7 9 10 10 9 9 9 8 8 7 7 7 6 6 6 6 6 6 7
5 3 1 2 2 1 2 2 1 1 1 1 2 3 2 1 1 1 2 1 2 0 1 2 5 6 6 6 6 6 6 8 9 9 9 8 8 7 7 6 6 6 5 5 5 5 5 5 6
2 0 2 3 1 2 3 3 1 1 1 3 3 3 2 2 0 1 2 3 2 1 1 2 4 5 6 6 6 5 5 6 8 9 9 8 7 6 5 5 5 5 5 5 5 5 5 5 6
1 2 4 3 2 3 2 2 1 1 1 2 3 2 3 4 3 4 3 3 1 1 2 2 2 5 5 5 5 5 5 6 7 8 8 7 7 6 5 5 5 5 5 5 5 5 4 5 5
2 3 4 2 4 3 1 1 1 1 2 2 3 3 2 2 3 2 3 2 1 1 1 2 1 3 4 4 4 4 5 5 6 7 7 6 6 5 4 4 4 4 4 4 4 4 5 5 6
2 3 1 1 3 3 1 1 1 1 2 1 3 3 1 1 1 3 3 3 2 2 2 2 2 1 2 3 3 3 4 4 5 5 6 6 5 4 3 2 2 2 3 3 4 5 5 5 6
3 3 1 1 1 3 1 1 1 1 1 2 3 4 1 1 2 3 4 3 3 3 3 2 2 2 1 1 1 3 3 3 4 4 4 5 4 4 3 1 2 2 2 2 3 4 4 4 4
2 3 1 2 2 2 0 1 2 2 3 3 3 2 2 4 5 5 4 3 2 2 2 2 2 1 1 1 1 2 2 3 2 2 3 2 1 1 1 0 1 1 2 2 3 4 4 3 4
3 2 4 4 4 2 1 0 1 2 2 3 4 4 6 6 5 4 3 1 1 1 2 2 2 2 2 1 2 2 2 2 2 2 2 2 2 1 1 1 1 1 1 1 2 2 2 1 0
3 4 3 3 3 2 2 1 2 4 1 2 5 6 5 5 4 3 2 1 1 1 1 1 1 2 2 2 2 2 1 2 2 2 2 2 2 1 2 1 1 2 2 2 2 1 0 1 1
3 4 3 3 1 2 3 2 3 2 2 3 5 6 6 6 4 3 2 1 0 1 2 2 2 2 2 2 2 2 2 1 1 1 2 2 1 1 1 1 1 2 1 1 2 1 1 1 1
2 3 2 1 0 2 4 3 3 1 3 5 6 6 6 6 4 3 2 2 2 1 1 2 2 2 2 2 1 2 1 1 1 1 1 1 1 1 1 1 1 1 1 1 1 1 1 1 1
1 1 2 3 2 2 4 3 3 1 4 5 5 5 5 5 4 3 2 2 1 1 1 2 2 2 2 2 2 1 1 1 1 1 1 1 1 1 1 1 1 1 1 1 1 1 1 1 1
1 3 4 2 2 1 4 2 1 2 5 5 4 4 4 3 3 3 3 3 2 1 1 2 2 3 3 2 2 2 1 1 1 1 2 1 1 1 1 1 1 1 1 1 1 2 2 1 1
3 3 2 3 1 1 4 2 3 3 6 4 4 3 3 2 3 3 3 3 2 2 2 1 2 3 3 2 2 2 2 2 1 1 1 1 2 2 1 1 1 1 1 1 1 1 2 2 1
3 1 2 3 1 1 2 3 3 3 5 4 4 4 3 2 2 2 3 3 3 2 2 2 2 3 3 3 3 2 2 2 1 1 1 2 2 2 2 1 1 1 1 1 1 2 1 1 1
3 2 2 3 2 1 0 3 2 3 5 5 4 4 4 4 4 3 3 3 3 3 3 3 2 2 2 2 2 2 3 2 2 2 2 2 2 2 2 1 1 1 1 2 2 2 2 1 1
3 2 3 4 1 1 2 3 3 2 3 4 4 4 5 5 4 3 3 3 3 3 3 2 3 1 1 1 1 1 1 1 2 2 2 2 2 2 1 1 1 1 1 1 1 1 2 2 1
2 2 2 3 1 2 1 3 3 3 5 6 6 6 6 4 3 4 4 4 4 4 3 3 2 2 1 1 1 1 1 1 1 1 2 2 2 1 1 1 1 1 1 1 1 1 1 1 2
2 4 4 2 2 2 1 4 3 3 3 4 4 5 6 7 7 5 5 4 4 4 4 3 2 2 1 2 2 2 2 2 2 2 2 2 2 2 1 1 1 1 1 0 0 1 1 1 1
4 5 4 3 2 1 1 3 6 3 2 4 4 4 5 6 6 6 6 5 5 5 4 3 2 2 2 2 3 3 2 1 0 0 1 2 2 2 2 1 1 1 1 1 0 1 1 1 1
4 1 3 2 3 1 1 1 8 1 3 6 6 6 6 6 7 7 7 7 5 5 4 3 3 2 2 2 2 3 2 1 0 1 2 2 2 2 2 2 1 1 1 1 1 1 1 1 1
4 6 6 5 5 1 2 2 7 5 7 6 6 6 5 5 5 6 5 5 4 3 4 4 4 2 2 2 2 2 3 1 1 1 1 1 2 2 3 2 2 1 1 0 0 1 1 1 1
5 6 4 4 4 5 2 2 10 7 6 6 6 6 5 5 5 5 5 6 5 4 4 4 4 3 2 2 2 2 2 2 2 1 0 0 1 1 2 2 1 1 1 0 1 1 1 1 1
3 7 7 5 4 4 2 5 9 4 2 3 4 5 4 5 5 5 6 6 6 5 5 4 4 3 3 3 2 1 1 1 1 0 0 0 1 1 1 1 1 2 1 1 1 1 1 1 1
5 3 5 7 2 1 5 7 9 2 1 2 3 4 4 4 4 4 4 5 6 6 5 5 5 4 3 3 2 1 1 1 0 1 0 0 1 1 1 2 2 2 2 1 1 1 0 1 1
4 7 5 5 4 2 5 5 5 5 3 2 4 5 4 4 4 4 4 4 5 5 4 4 4 4 3 3 2 2 1 0 0 1 1 1 1 1 1 1 1 2 2 1 1 1 0 1 0
3 4 5 4 5 5 3 7 6 6 5 5 5 5 6 5 5 5 4 3 4 4 4 4 4 4 3 3 2 2 1 1 0 0 1 1 1 1 1 1 1 1 2 1 1 1 0 0 1
4 5 7 5 3 4 3 9 5 3 3 3 4 4 4 5 5 4 4 3 4 4 4 4 4 4 3 3 3 2 2 2 1 1 1 1 1 1 1 1 1 1 1 1 1 1 1 1 1
Wind_Direction
159 145 143 143 52 39 327 307 301 2 40 40 72 86 104 109 156 251 301 165 161 188 226 217 189 180 177 175 174 172 172 171 166 164 165 164 163 161 162 162 163 167 169 170 172 174 174 178 183
145 153 178 57 68 27 316 317 348 356 141 130 77 72 67 40 50 104 300 248 160 182 229 215 179 173 170 168 169 171 172 170 167 165 165 166 166 166 167 166 169 172 174 178 180 182 183 185 186
162 194 77 56 73 176 276 311 327 56 101 98 70 53 74 30 38 182 229 165 92 65 280 241 186 174 169 166 169 171 170 168 167 165 164 165 165 166 164 166 174 177 180 185 189 191 192 189 186
163 107 47 54 359 251 228 262 242 137 32 39 86 55 39 19 147 172 135 118 94 15 302 264 201 183 172 170 170 163 157 161 166 163 159 161 164 164 165 171 177 183 190 191 192 197 200 197 194
81 72 46 20 316 294 274 257 230 106 74 55 84 81 14 0 56 99 115 113 113 327 318 309 191 177 173 171 168 158 150 149 152 155 160 165 170 170 174 178 183 188 191 196 200 204 208 202 204
57 64 57 352 316 320 326 347 45 58 83 79 86 84 9 20 69 98 101 87 86 40 341 356 103 136 158 167 170 163 158 155 156 161 165 169 173 171 173 182 189 193 199 201 205 215 222 218 217
93 70 72 270 304 314 287 13 68 77 78 98 110 89 357 6 66 97 84 80 63 48 31 11 20 58 144 164 171 171 163 164 160 160 162 165 164 165 170 182 198 201 206 211 218 226 228 226 226
131 91 11 287 269 279 292 3 65 99 74 86 88 116 199 225 97 88 75 67 52 41 26 12 15 21 26 46 152 162 162 155 145 148 156 159 155 158 167 181 207 215 224 219 225 234 234 230 227
120 73 269 241 217 257 268 13 16 53 87 66 60 110 142 120 102 89 74 49 33 24 9 3 20 29 24 36 98 118 133 130 129 138 136 124 95 97 111 145 213 225 237 241 239 237 232 233 231
109 143 233 220 196 208 254 65 131 69 68 72 72 79 101 107 111 113 115 104 34 352 355 9 27 33 39 50 59 60 71 64 60 59 61 63 64 58 60 57 2 333 320 303 275 246 222 227 210
166 207 251 255 220 175 159 130 82 115 97 174 154 140 124 115 113 124 140 157 216 299 12 23 29 37 57 57 62 65 65 60 59 60 59 66 58 49 39 34 5 359 7 353 343 338 55 107 134
195 245 242 258 174 139 148 129 90 114 182 149 142 143 140 138 142 155 156 148 68 58 34 44 61 68 68 77 68 72 72 67 65 63 68 79 75 63 56 48 15 8 6 360 10 26 58 73 105
224 282 297 281 321 136 109 105 110 82 110 113 120 129 144 149 153 152 136 105 80 79 53 58 72 81 79 79 71 79 87 91 81 62 59 93 110 92 69 50 32 8 18 22 24 40 61 71 93
247 311 327 339 14 71 105 86 96 169 124 118 127 149 161 163 166 150 132 126 121 102 67 71 80 91 94 92 89 72 74 81 80 66 49 67 98 103 102 76 36 11 15 39 41 45 66 64 78
11 25 358 4 39 96 105 45 248 169 129 136 152 166 172 178 176 174 169 161 159 139 82 77 95 85 91 89 81 78 68 75 73 61 51 58 86 99 97 88 48 11 22 51 55 46 59 63 61
32 42 354 305 69 129 114 242 245 155 148 162 171 175 183 195 197 189 166 155 149 129 97 79 97 95 93 89 76 71 63 66 60 50 49 66 85 94 93 81 44 25 51 63 65 51 63 58 51
26 13 277 296 301 105 118 239 240 158 159 178 181 184 185 200 221 203 176 156 143 133 112 95 83 95 99 86 73 68 62 57 45 42 42 47 58 72 87 79 41 40 56 54 65 60 78 69 38
241 255 259 260 264 89 125 258 258 181 176 193 191 193 196 209 219 197 161 142 133 118 110 108 91 76 85 82 69 59 53 45 39 34 32 42 46 58 71 65 33 47 58 49 59 68 59 79 52
194 210 263 264 245 122 234 259 256 200 186 199 205 205 210 220 206 159 145 142 129 114 115 125 115 94 92 93 88 73 47 31 25 21 27 33 40 59 79 61 44 50 62 55 53 81 70 57 60
182 219 271 311 46 129 246 273 259 213 205 204 206 212 211 207 184 164 155 152 147 150 150 146 141 135 121 131 120 105 91 49 20 355 12 17 25 30 79 93 73 56 62 50 54 76 78 47 49
219 198 216 223 26 43 52 320 280 266 224 214 213 211 207 196 191 182 170 165 159 162 165 162 158 147 132 115 94 81 60 38 25 12 4 8 14 19 30 54 74 77 103 88 56 85 110 82 36
249 233 200 180 107 312 86 278 279 256 266 237 235 225 212 196 188 183 177 174 179 183 170 159 153 133 124 126 122 122 122 125 246 350 344 1 16 19 32 48 66 69 73 75 24 86 104 118 100
212 111 103 115 125 38 2 203 282 280 247 240 232 222 211 196 189 190 189 184 184 179 169 161 146 130 123 115 129 132 130 157 49 36 28 12 10 15 20 29 45 55 52 30 39 77 96 114 135
138 73 57 50 70 336 257 182 276 233 219 224 221 211 203 196 189 187 185 177 179 171 166 158 148 148 142 138 144 148 150 142 82 47 29 355 352 1 9 20 26 34 37 15 30 90 112 115 123
95 92 41 5 10 257 266 209 252 248 222 203 203 201 199 187 180 177 175 179 182 176 176 165 153 154 153 155 162 167 160 149 156 173 165 347 348 344 340 356 4 4 353 12 70 81 75 106 120
159 138 155 189 219 274 301 242 257 268 241 187 184 182 184 182 183 184 188 186 183 180 175 164 159 162 159 163 170 143 130 138 167 205 205 240 263 293 325 350 359 6 18 35 64 71 57 85 107
139 158 157 131 147 281 280 283 300 317 62 139 155 161 181 186 185 184 187 188 182 180 182 174 166 172 165 159 142 114 113 126 105 358 7 314 299 320 15 17 9 10 21 27 60 72 54 80 83
132 141 105 121 147 245 287 276 263 286 271 193 180 184 187 179 184 188 185 185 181 178 173 163 162 170 158 142 154 143 124 98 10 24 349 341 341 355 20 14 359 2 10 25 65 65 34 91 242
110 102 108 115 147 157 244 268 236 231 222 201 201 190 182 182 190 194 189 179 163 153 153 152 148 144 145 150 147 132 109 108 123 7 297 303 352 10 12 344 352 1 9 16 49 11 17 20 324
158 158 147 150 201 171 185 265 282 229 217 191 198 193 180 178 179 170 166 156 146 147 146 150 151 149 152 148 139 141 131 115 104 52 331 355 12 0 347 346 0 354 9 12 11 323 337 322 305